ALA502 UGTB-LUKK

Flight info

Callsign ALA502
Flight time 2h 31m
Altitude 34000
Route ZAGOT DCT BARUS N11 ROLIN UN644 SIN UW90 INB UL746 ODERO DCT REVDA DCT PILAT DCT RIPGA/N0453F350 DCT KODRU DCT LIPTA
Aircraft A320/M-SDE3FGHIRWY/LB1

Departure

Time 2026-05-04 18:02
Airport Tbilisi International Airport (UGTB)

Arrival

Time 2026-05-04 20:33
Airport Chişinău International Airport (LUKK)
Time Latitude Longitude Altitude Speed Heading
2026-05-04 17:17 41.66956 44.96274 1527 ft 0 kts 44°
2026-05-04 17:51 41.66947 44.96262 1518 ft 3 kts 41°
2026-05-04 17:51 41.66931 44.96244 1518 ft 3 kts 38°
2026-05-04 17:51 41.66915 44.96228 1521 ft 3 kts 39°
2026-05-04 17:52 41.66900 44.96210 1520 ft 3 kts 53°
2026-05-04 17:52 41.66893 44.96193 1522 ft 3 kts 109°
2026-05-04 17:52 41.66894 44.96188 1521 ft 0 kts 133°
2026-05-04 17:55 41.66892 44.96191 1526 ft 2 kts 133°
2026-05-04 17:55 41.66882 44.96205 1521 ft 1 kts 133°
2026-05-04 17:55 41.66877 44.96212 1521 ft 2 kts 133°
2026-05-04 17:56 41.66858 44.96239 1523 ft 6 kts 132°
2026-05-04 17:56 41.66832 44.96277 1521 ft 7 kts 133°
2026-05-04 17:56 41.66794 44.96330 1526 ft 8 kts 134°
2026-05-04 17:56 41.66759 44.96379 1521 ft 7 kts 134°
2026-05-04 17:57 41.66722 44.96420 1524 ft 8 kts 151°
2026-05-04 17:57 41.66658 44.96423 1525 ft 11 kts 191°
2026-05-04 17:57 41.66571 44.96396 1526 ft 12 kts 194°
2026-05-04 17:57 41.66495 44.96370 1520 ft 10 kts 193°
2026-05-04 17:58 41.66432 44.96350 1520 ft 8 kts 193°
2026-05-04 17:58 41.66371 44.96330 1523 ft 11 kts 194°
2026-05-04 17:58 41.66281 44.96302 1524 ft 15 kts 190°
2026-05-04 17:58 41.66181 44.96316 1524 ft 15 kts 160°
2026-05-04 17:59 41.66095 44.96397 1524 ft 16 kts 135°
2026-05-04 17:59 41.66021 44.96493 1525 ft 14 kts 136°
2026-05-04 17:59 41.65854 44.96561 1525 ft 14 kts 234°
2026-05-04 18:00 41.65857 44.96443 1523 ft 11 kts 301°
2026-05-04 18:00 41.65866 44.96429 1524 ft 0 kts 312°
2026-05-04 18:01 41.65882 44.96408 1525 ft 14 kts 316°
2026-05-04 18:02 41.66715 44.95365 1525 ft 150 kts 317°
2026-05-04 18:02 41.67609 44.94230 1687 ft 191 kts 318°
2026-05-04 18:02 41.68597 44.93014 2448 ft 196 kts 317°
2026-05-04 18:02 41.69591 44.91795 3496 ft 194 kts 316°
2026-05-04 18:03 41.70598 44.90550 3980 ft 205 kts 316°
2026-05-04 18:03 41.71707 44.89177 4189 ft 229 kts 316°
2026-05-04 18:03 41.72934 44.87652 4479 ft 253 kts 316°
2026-05-04 18:03 41.74273 44.85988 4891 ft 270 kts 317°
2026-05-04 18:04 41.75674 44.84241 5517 ft 279 kts 317°
2026-05-04 18:04 41.77112 44.82449 6269 ft 285 kts 317°
2026-05-04 18:04 41.79841 44.78515 7678 ft 294 kts 298°
2026-05-04 18:05 41.80522 44.75926 8394 ft 297 kts 277°
2026-05-04 18:05 41.80564 44.73169 9169 ft 297 kts 265°
2026-05-04 18:05 41.80466 44.70391 9950 ft 300 kts 265°
2026-05-04 18:05 41.80370 44.67572 10464 ft 312 kts 265°
2026-05-04 18:06 41.80160 44.61336 10756 ft 357 kts 265°
2026-05-04 18:06 41.80049 44.57936 11066 ft 370 kts 265°
2026-05-04 18:06 41.79935 44.54460 11617 ft 376 kts 265°
2026-05-04 18:07 41.79822 44.50955 12265 ft 378 kts 264°
2026-05-04 18:07 41.79705 44.47410 12881 ft 382 kts 264°
2026-05-04 18:07 41.79582 44.43842 13485 ft 386 kts 263°
2026-05-04 18:07 41.79456 44.40241 14046 ft 388 kts 263°
2026-05-04 18:08 41.79327 44.36617 14577 ft 391 kts 263°
2026-05-04 18:08 41.79196 44.32956 15112 ft 394 kts 262°
2026-05-04 18:08 41.79064 44.29279 15656 ft 397 kts 263°
2026-05-04 18:08 41.78931 44.25561 16217 ft 401 kts 263°
2026-05-04 18:09 41.78657 44.18053 17317 ft 407 kts 263°
2026-05-04 18:09 41.78799 44.10380 18318 ft 420 kts 273°
2026-05-04 18:10 41.79185 44.06481 18772 ft 423 kts 273°
2026-05-04 18:10 41.79574 44.02561 19236 ft 426 kts 273°
2026-05-04 18:10 41.79962 43.98616 19696 ft 428 kts 273°
2026-05-04 18:10 41.80346 43.94647 20093 ft 431 kts 273°
2026-05-04 18:11 41.80730 43.90654 20510 ft 433 kts 273°
2026-05-04 18:11 41.81111 43.86639 20902 ft 436 kts 273°
2026-05-04 18:11 41.81486 43.82651 21291 ft 438 kts 273°
2026-05-04 18:11 41.81875 43.78537 21688 ft 441 kts 273°
2026-05-04 18:12 41.82256 43.74498 22034 ft 445 kts 274°
2026-05-04 18:12 41.82648 43.70314 22376 ft 448 kts 274°
2026-05-04 18:12 41.83035 43.66150 22692 ft 451 kts 274°
2026-05-04 18:12 41.83416 43.62027 23052 ft 453 kts 274°
2026-05-04 18:13 41.83807 43.57818 23409 ft 455 kts 274°
2026-05-04 18:13 41.84199 43.53593 23652 ft 458 kts 274°
2026-05-04 18:13 41.84989 43.45089 24202 ft 461 kts 273°
2026-05-04 18:14 41.85380 43.40822 24472 ft 461 kts 273°
2026-05-04 18:14 41.85772 43.36485 24773 ft 464 kts 272°
2026-05-04 18:14 41.86151 43.32233 24994 ft 467 kts 272°
2026-05-04 18:15 41.86929 43.23541 25538 ft 470 kts 272°
2026-05-04 18:15 41.87712 43.14797 26104 ft 473 kts 271°
2026-05-04 18:15 41.88101 43.10412 26334 ft 474 kts 271°
2026-05-04 18:16 41.88488 43.06012 26599 ft 476 kts 271°
2026-05-04 18:16 41.88875 43.01594 26833 ft 477 kts 271°
2026-05-04 18:16 41.89264 42.97176 27094 ft 478 kts 271°
2026-05-04 18:17 41.90033 42.88326 27519 ft 479 kts 271°
2026-05-04 18:17 41.90315 42.83886 27771 ft 475 kts 265°
2026-05-04 18:17 41.90039 42.75160 28344 ft 468 kts 261°
2026-05-04 18:18 41.89869 42.70817 28614 ft 467 kts 261°
2026-05-04 18:18 41.89695 42.66470 28880 ft 466 kts 261°
2026-05-04 18:18 41.89520 42.62120 29227 ft 465 kts 261°
2026-05-04 18:18 41.89346 42.57792 29531 ft 464 kts 261°
2026-05-04 18:19 41.88994 42.49179 30084 ft 463 kts 262°
2026-05-04 18:19 41.88814 42.44856 30290 ft 464 kts 262°
2026-05-04 18:19 41.88632 42.40529 30489 ft 465 kts 262°
2026-05-04 18:20 41.88450 42.36204 30658 ft 464 kts 262°
2026-05-04 18:20 41.88268 42.31886 30871 ft 464 kts 262°
2026-05-04 18:20 41.88084 42.27565 31073 ft 464 kts 262°
2026-05-04 18:20 41.87899 42.23241 31299 ft 464 kts 262°
2026-05-04 18:21 41.87708 42.18919 31525 ft 463 kts 262°
2026-05-04 18:21 41.87513 42.14608 31821 ft 462 kts 262°
2026-05-04 18:21 41.87313 42.10393 32183 ft 441 kts 261°
2026-05-04 18:21 41.87113 42.06395 32821 ft 417 kts 261°
2026-05-04 18:22 41.86927 42.02580 33196 ft 405 kts 261°
2026-05-04 18:22 41.86746 41.98847 33249 ft 400 kts 261°
2026-05-04 18:22 41.86575 41.95123 32758 ft 399 kts 262°
2026-05-04 18:22 41.86418 41.91410 32314 ft 397 kts 262°
2026-05-04 18:23 41.86264 41.87740 31943 ft 393 kts 262°
2026-05-04 18:23 41.86098 41.84097 31840 ft 390 kts 261°
2026-05-04 18:23 41.85731 41.76917 31866 ft 382 kts 261°
2026-05-04 18:24 41.85371 41.70054 31959 ft 356 kts 261°
2026-05-04 18:24 41.85211 41.66737 32088 ft 359 kts 262°
2026-05-04 18:24 41.85067 41.63371 32218 ft 364 kts 262°
2026-05-04 18:25 41.84922 41.59957 32353 ft 369 kts 262°
2026-05-04 18:25 41.84769 41.56499 32485 ft 375 kts 262°
2026-05-04 18:25 41.84604 41.52984 32618 ft 380 kts 262°
2026-05-04 18:25 41.84429 41.49412 32771 ft 387 kts 262°
2026-05-04 18:26 41.84247 41.45778 32903 ft 394 kts 262°
2026-05-04 18:26 41.84060 41.42091 33037 ft 400 kts 262°
2026-05-04 18:26 41.83867 41.38345 33175 ft 405 kts 262°
2026-05-04 18:26 41.83670 41.34556 33310 ft 410 kts 262°
2026-05-04 18:27 41.83472 41.30712 33446 ft 415 kts 262°
2026-05-04 18:27 41.83270 41.26825 33583 ft 420 kts 262°
2026-05-04 18:27 41.83065 41.22906 33755 ft 423 kts 262°
2026-05-04 18:27 41.82857 41.18952 33869 ft 429 kts 263°
2026-05-04 18:28 41.82422 41.10842 33882 ft 443 kts 263°
2026-05-04 18:28 41.81968 41.02469 33881 ft 457 kts 263°
2026-05-04 18:29 41.81503 40.93868 33888 ft 467 kts 263°
2026-05-04 18:29 41.81025 40.85162 33888 ft 469 kts 263°
2026-05-04 18:30 41.80375 40.73573 33890 ft 467 kts 263°
2026-05-04 18:31 41.79970 40.64897 33889 ft 468 kts 269°
2026-05-04 18:31 41.80343 40.56183 33891 ft 468 kts 271°
2026-05-04 18:32 41.80721 40.47475 33888 ft 468 kts 270°
2026-05-04 18:32 41.81092 40.38760 33886 ft 468 kts 270°
2026-05-04 18:33 41.81462 40.30043 33890 ft 469 kts 270°
2026-05-04 18:33 41.81825 40.21321 33906 ft 469 kts 270°
2026-05-04 18:34 41.82170 40.12597 33907 ft 468 kts 270°
2026-05-04 18:34 41.82520 40.03881 33905 ft 469 kts 270°
2026-05-04 18:35 41.82863 39.95156 33897 ft 469 kts 270°
2026-05-04 18:35 41.83192 39.86413 33894 ft 470 kts 270°
2026-05-04 18:36 41.83515 39.77667 33894 ft 470 kts 270°
2026-05-04 18:36 41.83832 39.68913 33906 ft 470 kts 270°
2026-05-04 18:37 41.84151 39.60146 33916 ft 471 kts 270°
2026-05-04 18:37 41.84452 39.51429 33914 ft 471 kts 270°
2026-05-04 18:38 41.84746 39.42665 33913 ft 470 kts 270°
2026-05-04 18:38 41.85047 39.33899 33911 ft 470 kts 270°
2026-05-04 18:39 41.85345 39.25140 33919 ft 470 kts 270°
2026-05-04 18:39 41.85621 39.16374 33908 ft 471 kts 270°
2026-05-04 18:40 41.85888 39.07596 33905 ft 471 kts 270°
2026-05-04 18:40 41.86157 38.98810 33913 ft 471 kts 270°
2026-05-04 18:41 41.86425 38.90029 33923 ft 471 kts 270°
2026-05-04 18:41 41.86685 38.81249 33927 ft 471 kts 270°
2026-05-04 18:42 41.86938 38.72462 33921 ft 472 kts 270°
2026-05-04 18:42 41.87182 38.63659 33919 ft 472 kts 270°
2026-05-04 18:43 41.87410 38.54855 33922 ft 472 kts 270°
2026-05-04 18:43 41.87639 38.46044 33923 ft 472 kts 270°
2026-05-04 18:44 41.87860 38.37169 33919 ft 473 kts 270°
2026-05-04 18:44 41.88079 38.28403 33914 ft 474 kts 270°
2026-05-04 18:45 41.88290 38.19566 33919 ft 474 kts 270°
2026-05-04 18:45 41.88487 38.10720 33914 ft 474 kts 270°
2026-05-04 18:46 41.88680 38.01912 33926 ft 474 kts 270°
2026-05-04 18:46 41.88873 37.93057 33922 ft 475 kts 270°
2026-05-04 18:47 41.89057 37.84199 33931 ft 475 kts 270°
2026-05-04 18:47 41.89229 37.75341 33928 ft 475 kts 270°
2026-05-04 18:48 41.89400 37.66478 33927 ft 475 kts 270°
2026-05-04 18:48 41.89566 37.57615 33932 ft 475 kts 270°
2026-05-04 18:49 41.89717 37.48739 33925 ft 476 kts 270°
2026-05-04 18:49 41.89856 37.39862 33920 ft 476 kts 270°
2026-05-04 18:50 41.89998 37.30980 33925 ft 476 kts 270°
2026-05-04 18:50 41.90138 37.22088 33935 ft 476 kts 270°
2026-05-04 18:51 41.90272 37.13194 33930 ft 477 kts 270°
2026-05-04 18:51 41.90395 37.04304 33931 ft 469 kts 270°
2026-05-04 18:52 41.90755 36.95734 33935 ft 454 kts 275°
2026-05-04 18:52 41.91416 36.87381 33937 ft 445 kts 276°
2026-05-04 18:53 41.92078 36.79266 33935 ft 425 kts 275°
2026-05-04 18:53 41.92624 36.71449 33940 ft 417 kts 275°
2026-05-04 18:54 41.93097 36.63756 33944 ft 409 kts 275°
2026-05-04 18:54 41.93569 36.56201 33937 ft 402 kts 275°
2026-05-04 18:55 41.94049 36.48793 33937 ft 395 kts 275°
2026-05-04 18:55 41.94743 36.37953 33936 ft 382 kts 275°
2026-05-04 18:56 41.95176 36.30962 33935 ft 368 kts 275°
2026-05-04 18:56 41.95378 36.27597 33939 ft 354 kts 274°
2026-05-04 18:56 41.95554 36.24359 33797 ft 345 kts 276°
2026-05-04 18:57 41.95772 36.21048 33346 ft 366 kts 278°
2026-05-04 18:57 41.96090 36.17606 33163 ft 379 kts 279°
2026-05-04 18:57 41.96420 36.14001 32829 ft 397 kts 276°
2026-05-04 18:57 41.96671 36.10260 32830 ft 408 kts 274°
2026-05-04 18:58 41.97051 36.02473 32851 ft 427 kts 274°
2026-05-04 18:58 41.97246 35.98476 32990 ft 432 kts 274°
2026-05-04 18:58 41.97465 35.94416 33111 ft 438 kts 275°
2026-05-04 18:59 41.97698 35.90369 33257 ft 442 kts 275°
2026-05-04 18:59 41.97947 35.86177 33391 ft 447 kts 275°
2026-05-04 18:59 41.98197 35.81996 33531 ft 451 kts 275°
2026-05-04 18:59 41.98448 35.77773 33662 ft 455 kts 275°
2026-05-04 19:00 41.98698 35.73569 33815 ft 459 kts 275°
2026-05-04 19:00 41.98947 35.69285 33930 ft 462 kts 275°
2026-05-04 19:00 41.99446 35.60493 33947 ft 475 kts 275°
2026-05-04 19:01 41.99947 35.51556 33946 ft 483 kts 275°
2026-05-04 19:01 42.00448 35.42538 33946 ft 484 kts 275°
2026-05-04 19:02 42.00936 35.33599 33945 ft 484 kts 275°
2026-05-04 19:02 42.01416 35.24570 33949 ft 485 kts 275°
2026-05-04 19:03 42.01891 35.15519 33950 ft 485 kts 275°
2026-05-04 19:03 42.02237 35.06461 33952 ft 486 kts 269°
2026-05-04 19:04 42.01789 34.97390 33954 ft 486 kts 267°
2026-05-04 19:04 42.01329 34.88316 33954 ft 486 kts 267°
2026-05-04 19:05 42.00875 34.79246 33947 ft 486 kts 267°
2026-05-04 19:05 42.00441 34.70165 33925 ft 487 kts 268°
2026-05-04 19:06 42.00004 34.61072 33934 ft 488 kts 268°
2026-05-04 19:06 41.99549 34.51959 33929 ft 489 kts 268°
2026-05-04 19:07 41.99081 34.42840 33939 ft 489 kts 268°
2026-05-04 19:07 41.98610 34.33723 33933 ft 489 kts 268°
2026-05-04 19:08 41.98131 34.24630 33920 ft 490 kts 269°
2026-05-04 19:08 41.97640 34.15482 33926 ft 491 kts 269°
2026-05-04 19:09 41.97147 34.06322 33926 ft 492 kts 269°
2026-05-04 19:09 41.96649 33.97146 33928 ft 492 kts 269°
2026-05-04 19:10 41.96138 33.87972 33908 ft 493 kts 269°
2026-05-04 19:10 41.95607 33.78787 33919 ft 493 kts 269°
2026-05-04 19:11 41.95544 33.69631 33923 ft 487 kts 282°
2026-05-04 19:11 41.97027 33.60914 33930 ft 482 kts 289°
2026-05-04 19:12 41.99538 33.47878 33912 ft 482 kts 289°
2026-05-04 19:13 42.01200 33.39146 33948 ft 481 kts 289°
2026-05-04 19:13 42.02865 33.30436 33946 ft 480 kts 289°
2026-05-04 19:14 42.04522 33.21734 33947 ft 480 kts 289°
2026-05-04 19:14 42.05900 33.14439 33928 ft 480 kts 289°
2026-05-04 19:15 42.07537 33.05739 33939 ft 479 kts 290°
2026-05-04 19:15 42.09567 32.95697 33934 ft 478 kts 291°
2026-05-04 19:16 42.11074 32.88495 33937 ft 477 kts 291°
2026-05-04 19:16 42.12855 32.79887 33900 ft 477 kts 291°
2026-05-04 19:17 42.14595 32.71263 33915 ft 477 kts 290°
2026-05-04 19:17 42.16323 32.62631 33921 ft 477 kts 290°
2026-05-04 19:18 42.18057 32.53996 33920 ft 477 kts 290°
2026-05-04 19:18 42.19781 32.45353 33927 ft 477 kts 290°
2026-05-04 19:19 42.21489 32.36763 33921 ft 477 kts 290°
2026-05-04 19:19 42.23210 32.28047 33928 ft 477 kts 290°
2026-05-04 19:20 42.24897 32.19454 33889 ft 477 kts 290°
2026-05-04 19:20 42.26595 32.10809 33900 ft 476 kts 290°
2026-05-04 19:21 42.28283 32.02172 33907 ft 476 kts 290°
2026-05-04 19:21 42.29965 31.93523 33917 ft 476 kts 290°
2026-05-04 19:22 42.31643 31.84877 33889 ft 476 kts 290°
2026-05-04 19:22 42.33315 31.76233 33910 ft 475 kts 290°
2026-05-04 19:23 42.34977 31.67587 33927 ft 475 kts 290°
2026-05-04 19:23 42.36630 31.58955 33940 ft 474 kts 290°
2026-05-04 19:24 42.38275 31.50319 33932 ft 474 kts 290°
2026-05-04 19:24 42.39919 31.41679 33944 ft 474 kts 290°
2026-05-04 19:25 42.41550 31.33034 33957 ft 474 kts 290°
2026-05-04 19:25 42.43173 31.24389 33961 ft 474 kts 290°
2026-05-04 19:26 42.44785 31.15753 33932 ft 473 kts 290°
2026-05-04 19:26 42.46397 31.07124 33955 ft 472 kts 290°
2026-05-04 19:27 42.47998 30.98502 33963 ft 472 kts 290°
2026-05-04 19:27 42.49586 30.89882 33965 ft 472 kts 290°
2026-05-04 19:28 42.51166 30.81260 33957 ft 471 kts 290°
2026-05-04 19:28 42.52743 30.72655 33975 ft 470 kts 290°
2026-05-04 19:29 42.54310 30.64053 33981 ft 470 kts 290°
2026-05-04 19:29 42.55867 30.55440 33990 ft 470 kts 289°
2026-05-04 19:30 42.57414 30.46825 33981 ft 469 kts 289°
2026-05-04 19:30 42.58955 30.38231 33987 ft 469 kts 289°
2026-05-04 19:31 42.61258 30.30161 33987 ft 450 kts 311°
2026-05-04 19:31 42.63295 30.27027 33984 ft 437 kts 325°
2026-05-04 19:31 42.65737 30.24650 33985 ft 430 kts 333°
2026-05-04 19:32 42.70780 30.20244 33971 ft 431 kts 332°
2026-05-04 19:32 42.75826 30.15808 33984 ft 432 kts 332°
2026-05-04 19:33 42.80867 30.11343 33993 ft 432 kts 332°
2026-05-04 19:33 42.85915 30.06878 33966 ft 433 kts 332°
2026-05-04 19:34 42.90964 30.02394 33981 ft 434 kts 332°
2026-05-04 19:34 42.96034 29.97901 33986 ft 435 kts 332°
2026-05-04 19:35 43.01110 29.93393 33999 ft 435 kts 331°
2026-05-04 19:35 43.06185 29.88856 34000 ft 436 kts 331°
2026-05-04 19:36 43.11266 29.84307 33997 ft 437 kts 331°
2026-05-04 19:36 43.16359 29.79749 33998 ft 438 kts 331°
2026-05-04 19:37 43.21461 29.75176 34000 ft 439 kts 331°
2026-05-04 19:37 43.26558 29.70585 34011 ft 439 kts 331°
2026-05-04 19:38 43.31671 29.65996 34020 ft 438 kts 331°
2026-05-04 19:38 43.36772 29.61411 34020 ft 439 kts 331°
2026-05-04 19:39 43.41871 29.56788 34024 ft 439 kts 330°
2026-05-04 19:39 43.46967 29.52159 34003 ft 439 kts 330°
2026-05-04 19:40 43.52074 29.47519 34010 ft 440 kts 330°
2026-05-04 19:40 43.57192 29.42873 34015 ft 441 kts 330°
2026-05-04 19:41 43.62302 29.38217 34019 ft 441 kts 330°
2026-05-04 19:41 43.67416 29.33542 34008 ft 441 kts 329°
2026-05-04 19:42 43.72536 29.28857 34018 ft 442 kts 329°
2026-05-04 19:42 43.77660 29.24152 34022 ft 442 kts 329°
2026-05-04 19:43 43.82754 29.19465 34028 ft 443 kts 329°
2026-05-04 19:43 43.87913 29.14711 34013 ft 443 kts 329°
2026-05-04 19:44 43.93005 29.10003 34025 ft 443 kts 329°
2026-05-04 19:44 43.98131 29.05254 34036 ft 443 kts 328°
2026-05-04 19:45 44.03258 29.00502 34039 ft 443 kts 328°
2026-05-04 19:45 44.08389 28.95739 34021 ft 443 kts 328°
2026-05-04 19:46 44.13517 28.90965 34032 ft 443 kts 328°
2026-05-04 19:46 44.18599 28.86212 34035 ft 444 kts 328°
2026-05-04 19:47 44.23725 28.81423 34043 ft 444 kts 328°
2026-05-04 19:47 44.28853 28.76619 34035 ft 444 kts 328°
2026-05-04 19:48 44.33981 28.71799 34036 ft 445 kts 327°
2026-05-04 19:48 44.39114 28.66963 34049 ft 445 kts 327°
2026-05-04 19:49 44.44242 28.62127 34047 ft 445 kts 327°
2026-05-04 19:49 44.49370 28.57283 34061 ft 445 kts 327°
2026-05-04 19:50 44.54495 28.52423 34052 ft 444 kts 327°
2026-05-04 19:50 44.59611 28.47561 34055 ft 444 kts 327°
2026-05-04 19:51 44.64725 28.42699 34064 ft 444 kts 327°
2026-05-04 19:51 44.69837 28.37821 34060 ft 444 kts 327°
2026-05-04 19:52 44.74945 28.32930 34054 ft 444 kts 326°
2026-05-04 19:52 44.80053 28.28043 34051 ft 444 kts 327°
2026-05-04 19:53 44.85158 28.23155 34051 ft 444 kts 326°
2026-05-04 19:53 44.90260 28.18265 34046 ft 444 kts 326°
2026-05-04 19:54 44.95320 28.13379 34060 ft 443 kts 325°
2026-05-04 19:54 45.00400 28.08456 34057 ft 442 kts 325°
2026-05-04 19:55 45.05470 28.03546 34060 ft 442 kts 325°
2026-05-04 19:55 45.08092 28.01293 34050 ft 441 kts 336°
2026-05-04 19:55 45.11016 28.00010 34049 ft 442 kts 351°
2026-05-04 19:55 45.14082 27.99921 34040 ft 443 kts
2026-05-04 19:56 45.17088 28.00884 34029 ft 444 kts 14°
2026-05-04 19:56 45.23071 28.03165 34014 ft 446 kts 14°
2026-05-04 19:57 45.29074 28.05465 34015 ft 448 kts 14°
2026-05-04 19:57 45.34125 28.07396 34016 ft 449 kts 13°
2026-05-04 19:58 45.40117 28.09678 34023 ft 449 kts 13°
2026-05-04 19:58 45.46162 28.11985 34025 ft 450 kts 13°
2026-05-04 19:59 45.52214 28.14294 34029 ft 451 kts 13°
2026-05-04 19:59 45.58279 28.16609 34027 ft 451 kts 13°
2026-05-04 20:00 45.64350 28.18939 34027 ft 452 kts 14°
2026-05-04 20:00 45.67392 28.20112 33631 ft 455 kts 13°
2026-05-04 20:00 45.70474 28.21304 32449 ft 461 kts 13°
2026-05-04 20:00 45.73568 28.22504 31505 ft 462 kts 13°
2026-05-04 20:01 45.76675 28.23709 30542 ft 463 kts 12°
2026-05-04 20:01 45.79796 28.24917 29407 ft 466 kts 12°
2026-05-04 20:01 45.82929 28.26129 28301 ft 466 kts 13°
2026-05-04 20:01 45.86059 28.27341 27203 ft 466 kts 13°
2026-05-04 20:02 45.89191 28.28554 25998 ft 466 kts 14°
2026-05-04 20:02 45.92326 28.29772 24799 ft 466 kts 15°
2026-05-04 20:02 45.95404 28.30971 23657 ft 450 kts 15°
2026-05-04 20:02 45.98369 28.32128 22659 ft 432 kts 15°
2026-05-04 20:03 46.01197 28.33235 21891 ft 412 kts 16°
2026-05-04 20:03 46.03910 28.34301 21163 ft 401 kts 16°
2026-05-04 20:03 46.06590 28.35354 20444 ft 397 kts 16°
2026-05-04 20:03 46.09250 28.36396 19741 ft 396 kts 16°
2026-05-04 20:04 46.11913 28.37435 19026 ft 396 kts 17°
2026-05-04 20:04 46.14530 28.38457 18329 ft 384 kts 17°
2026-05-04 20:04 46.17085 28.39455 17618 ft 376 kts 17°
2026-05-04 20:04 46.19548 28.40420 17154 ft 356 kts 17°
2026-05-04 20:05 46.21896 28.41340 17032 ft 342 kts 17°
2026-05-04 20:05 46.24160 28.42230 17053 ft 335 kts 17°
2026-05-04 20:05 46.26402 28.43115 17052 ft 333 kts 17°
2026-05-04 20:05 46.28639 28.43998 17052 ft 333 kts 17°
2026-05-04 20:06 46.30873 28.44879 17054 ft 333 kts 17°
2026-05-04 20:06 46.33107 28.45761 17052 ft 333 kts 17°
2026-05-04 20:06 46.35345 28.46648 16847 ft 335 kts 17°
2026-05-04 20:06 46.37616 28.47549 16222 ft 337 kts 17°
2026-05-04 20:07 46.39840 28.48431 16019 ft 328 kts 17°
2026-05-04 20:07 46.42023 28.49296 15646 ft 323 kts 17°
2026-05-04 20:07 46.44203 28.50044 15248 ft 320 kts 13°
2026-05-04 20:07 46.46331 28.50617 15041 ft 300 kts 12°
2026-05-04 20:08 46.48293 28.51094 14883 ft 280 kts 12°
2026-05-04 20:08 46.50183 28.51541 14482 ft 271 kts 12°
2026-05-04 20:08 46.52026 28.51982 13977 ft 267 kts 12°
2026-05-04 20:08 46.53849 28.52425 13406 ft 264 kts 12°
2026-05-04 20:09 46.55646 28.52869 12829 ft 260 kts 12°
2026-05-04 20:09 46.57417 28.53312 12269 ft 257 kts 12°
2026-05-04 20:09 46.59167 28.53750 11718 ft 253 kts 12°
2026-05-04 20:09 46.60887 28.54179 11183 ft 249 kts 12°
2026-05-04 20:10 46.62588 28.54605 10637 ft 246 kts 12°
2026-05-04 20:10 46.64262 28.55021 10100 ft 243 kts 12°
2026-05-04 20:10 46.65946 28.55441 9216 ft 252 kts 12°
2026-05-04 20:10 46.67706 28.55886 8628 ft 259 kts 12°
2026-05-04 20:11 46.69465 28.56329 8243 ft 256 kts 12°
2026-05-04 20:11 46.71238 28.56777 7767 ft 258 kts 12°
2026-05-04 20:11 46.73015 28.57223 7271 ft 260 kts 12°
2026-05-04 20:11 46.74787 28.57666 6905 ft 258 kts 12°
2026-05-04 20:12 46.76552 28.58105 6505 ft 257 kts 12°
2026-05-04 20:12 46.78320 28.58549 6033 ft 258 kts 12°
2026-05-04 20:12 46.80088 28.58998 5561 ft 259 kts 12°
2026-05-04 20:12 46.81877 28.59454 5032 ft 263 kts 12°
2026-05-04 20:13 46.83656 28.59905 4807 ft 254 kts 12°
2026-05-04 20:13 46.85356 28.60330 4662 ft 241 kts 12°
2026-05-04 20:13 46.86968 28.60735 4556 ft 228 kts 12°
2026-05-04 20:13 46.88492 28.61120 4459 ft 220 kts 13°
2026-05-04 20:14 46.89934 28.61801 4183 ft 215 kts 31°
2026-05-04 20:14 46.91102 28.63130 4007 ft 213 kts 49°
2026-05-04 20:14 46.91894 28.64947 3808 ft 213 kts 68°
2026-05-04 20:14 46.92215 28.67054 3559 ft 214 kts 86°
2026-05-04 20:15 46.92263 28.69230 3283 ft 214 kts 86°
2026-05-04 20:15 46.92311 28.71398 3007 ft 212 kts 87°
2026-05-04 20:15 46.92358 28.73515 2721 ft 202 kts 87°
2026-05-04 20:15 46.92402 28.75514 2469 ft 193 kts 88°
2026-05-04 20:16 46.92445 28.77457 2211 ft 190 kts 88°
2026-05-04 20:16 46.92487 28.79335 1989 ft 178 kts 88°
2026-05-04 20:16 46.92525 28.81096 1733 ft 168 kts 88°
2026-05-04 20:16 46.92561 28.82756 1499 ft 158 kts 88°
2026-05-04 20:17 46.92594 28.84310 1298 ft 148 kts 88°
2026-05-04 20:17 46.92626 28.85791 1117 ft 143 kts 89°
2026-05-04 20:17 46.92663 28.87251 950 ft 144 kts 88°
2026-05-04 20:17 46.92687 28.88718 744 ft 144 kts 89°
2026-05-04 20:18 46.92720 28.90189 549 ft 145 kts 89°
2026-05-04 20:18 46.92750 28.91653 413 ft 136 kts 89°
2026-05-04 20:18 46.92770 28.93040 519 ft 152 kts 88°
2026-05-04 20:18 46.92809 28.94701 1008 ft 172 kts 88°
2026-05-04 20:19 46.92860 28.96529 1588 ft 190 kts 88°
2026-05-04 20:19 46.92925 28.98545 2078 ft 208 kts 87°
2026-05-04 20:19 46.93006 29.00802 2418 ft 236 kts 86°
2026-05-04 20:19 46.93106 29.03325 2897 ft 260 kts 86°
2026-05-04 20:20 46.93222 29.06062 3484 ft 278 kts 85°
2026-05-04 20:20 46.93083 29.08770 3949 ft 258 kts 105°
2026-05-04 20:20 46.92181 29.10917 4004 ft 245 kts 135°
2026-05-04 20:20 46.90700 29.12060 4007 ft 249 kts 166°
2026-05-04 20:21 46.88942 29.11941 4015 ft 255 kts 197°
2026-05-04 20:21 46.87470 29.10565 4008 ft 251 kts 228°
2026-05-04 20:21 46.85488 29.06444 4012 ft 249 kts 237°
2026-05-04 20:22 46.84536 29.04286 4005 ft 249 kts 237°
2026-05-04 20:22 46.83600 29.02151 4011 ft 250 kts 238°
2026-05-04 20:22 46.82671 29.00053 4010 ft 250 kts 237°
2026-05-04 20:22 46.81728 28.97929 4008 ft 249 kts 237°
2026-05-04 20:23 46.80785 28.95804 4012 ft 249 kts 237°
2026-05-04 20:23 46.79840 28.93679 4008 ft 249 kts 237°
2026-05-04 20:23 46.78894 28.91557 4011 ft 250 kts 237°
2026-05-04 20:23 46.78033 28.89373 4001 ft 248 kts 253°
2026-05-04 20:24 46.77707 28.86923 4010 ft 247 kts 265°
2026-05-04 20:24 46.77541 28.84431 4009 ft 247 kts 267°
2026-05-04 20:24 46.77400 28.81936 4003 ft 247 kts 267°
2026-05-04 20:24 46.77270 28.79440 4009 ft 247 kts 267°
2026-05-04 20:25 46.77159 28.76948 4011 ft 246 kts 273°
2026-05-04 20:25 46.77409 28.74498 4010 ft 244 kts 285°
2026-05-04 20:25 46.77820 28.72100 4011 ft 244 kts 287°
2026-05-04 20:25 46.78250 28.69709 4012 ft 244 kts 287°
2026-05-04 20:26 46.78684 28.67317 4014 ft 244 kts 287°
2026-05-04 20:26 46.79287 28.65031 4008 ft 240 kts 303°
2026-05-04 20:26 46.80376 28.63242 4009 ft 236 kts 324°
2026-05-04 20:26 46.81665 28.61792 4002 ft 228 kts 327°
2026-05-04 20:27 46.82900 28.60465 4002 ft 216 kts 327°
2026-05-04 20:27 46.84107 28.59172 4008 ft 215 kts 327°
2026-05-04 20:27 46.85333 28.57943 4008 ft 212 kts 339°
2026-05-04 20:27 46.86734 28.57640 4008 ft 203 kts 15°
2026-05-04 20:28 46.88004 28.58473 4017 ft 201 kts 34°
2026-05-04 20:28 46.89153 28.59609 3754 ft 199 kts 37°
2026-05-04 20:28 46.90268 28.60778 3562 ft 193 kts 37°
2026-05-04 20:28 46.91280 28.61959 3470 ft 182 kts 48°
2026-05-04 20:29 46.91977 28.63463 3554 ft 188 kts 66°
2026-05-04 20:29 46.92239 28.65463 3487 ft 201 kts 87°
2026-05-04 20:29 46.92250 28.67439 3433 ft 190 kts 88°
2026-05-04 20:29 46.92272 28.69341 3239 ft 185 kts 87°
2026-05-04 20:30 46.92308 28.71193 3062 ft 178 kts 86°
2026-05-04 20:30 46.92347 28.72989 2800 ft 175 kts 87°
2026-05-04 20:30 46.92386 28.74747 2561 ft 171 kts 87°
2026-05-04 20:30 46.92424 28.76466 2335 ft 167 kts 88°
2026-05-04 20:31 46.92461 28.78156 2114 ft 164 kts 88°
2026-05-04 20:31 46.92497 28.79804 1904 ft 159 kts 88°
2026-05-04 20:31 46.92531 28.81362 1714 ft 146 kts 88°
2026-05-04 20:31 46.92562 28.82817 1496 ft 141 kts 88°
2026-05-04 20:32 46.92593 28.84233 1321 ft 139 kts 88°
2026-05-04 20:32 46.92623 28.85650 1128 ft 140 kts 88°
2026-05-04 20:32 46.92654 28.87089 939 ft 143 kts 88°
2026-05-04 20:32 46.92690 28.88543 755 ft 143 kts 88°
2026-05-04 20:33 46.92712 28.90010 570 ft 144 kts 89°
2026-05-04 20:33 46.92747 28.91472 412 ft 138 kts 89°
2026-05-04 20:33 46.92767 28.92562 409 ft 66 kts 88°
2026-05-04 20:33 46.92776 28.92934 409 ft 28 kts 88°
2026-05-04 20:34 46.92782 28.93203 407 ft 25 kts 88°
2026-05-04 20:34 46.92797 28.93397 406 ft 13 kts 45°
2026-05-04 20:34 46.92865 28.93418 407 ft 6 kts 357°
2026-05-04 20:34 46.92905 28.93415 407 ft 5 kts 358°
2026-05-04 20:35 46.92938 28.93414 408 ft 4 kts 358°
2026-05-04 20:35 46.92964 28.93414 408 ft 3 kts
2026-05-04 20:35 46.92981 28.93415 407 ft 2 kts
2026-05-04 20:35 46.92990 28.93415 409 ft 1 kts
2026-05-04 20:36 46.93008 28.93418 409 ft 6 kts
2026-05-04 20:36 46.93049 28.93424 409 ft 5 kts
2026-05-04 20:36 46.93095 28.93433 410 ft 9 kts
2026-05-04 20:36 46.93147 28.93443 411 ft 7 kts
2026-05-04 20:37 46.93193 28.93451 407 ft 7 kts
2026-05-04 20:37 46.93248 28.93461 408 ft 8 kts
2026-05-04 20:37 46.93301 28.93471 408 ft 7 kts
2026-05-04 20:37 46.93326 28.93540 408 ft 10 kts 94°
2026-05-04 20:38 46.93319 28.93635 408 ft 8 kts 89°
2026-05-04 20:38 46.93358 28.93670 408 ft 6 kts
2026-05-04 20:38 46.93371 28.93672 408 ft 0 kts